TimeCDT,TemperatureF,Dew PointF,Humidity,Sea Level PressureIn,VisibilityMPH,Wind Direction,Wind SpeedMPH,Gust SpeedMPH,PrecipitationIn,Events,Conditions,WindDirDegrees,DateUTC
4:58 AM,53.8,41.9,64,30.06,10.0,East,6.9,-,N/A,,Overcast,100,2013-05-27 09:58:00
5:58 AM,54.0,40.6,61,30.07,10.0,ESE,8.1,-,N/A,,Overcast,120,2013-05-27 10:58:00
6:08 AM,53.6,41.0,62,30.05,10.0,East,5.8,-,N/A,,Overcast,100,2013-05-27 11:08:00
8:58 AM,55.0,49.3,81,30.05,10.0,ESE,13.8,-,N/A,,Overcast,110,2013-05-27 13:58:00
9:54 AM,53.6,51.8,94,29.99,8.0,ESE,15.0,23.0,N/A,,Overcast,110,2013-05-27 14:54:00
9:56 AM,53.6,51.8,94,29.99,8.0,ESE,17.3,23.0,N/A,,Overcast,110,2013-05-27 14:56:00
10:19 AM,53.6,51.8,94,30.00,10.0,ESE,12.7,21.9,N/A,,Overcast,110,2013-05-27 15:19:00
10:55 AM,53.6,51.8,94,30.02,10.0,East,11.5,-,N/A,,Overcast,100,2013-05-27 15:55:00
10:58 AM,54.3,51.3,89,30.04,10.0,East,12.7,-,N/A,,Overcast,100,2013-05-27 15:58:00
11:58 AM,54.9,51.8,89,30.03,9.0,East,12.7,21.9,N/A,,Overcast,100,2013-05-27 16:58:00
12:05 PM,55.4,51.8,88,30.00,9.0,East,13.8,-,N/A,,Light Drizzle,100,2013-05-27 17:05:00
12:14 PM,55.4,51.8,88,29.99,10.0,East,20.7,25.3,N/A,,Overcast,90,2013-05-27 17:14:00
12:19 PM,55.4,51.8,88,30.00,10.0,East,15.0,25.3,N/A,,Overcast,100,2013-05-27 17:19:00
12:58 PM,55.6,52.3,89,30.00,10.0,East,17.3,24.2,0.00,,Overcast,90,2013-05-27 17:58:00
1:34 PM,55.4,53.6,94,29.97,10.0,East,18.4,23.0,N/A,,Light Drizzle,90,2013-05-27 18:34:00
1:46 PM,55.4,53.6,94,29.96,10.0,East,16.1,-,N/A,,Overcast,90,2013-05-27 18:46:00
1:58 PM,55.9,53.8,92,29.98,10.0,ESE,13.8,-,0.00,,Overcast,110,2013-05-27 18:58:00
2:33 PM,55.4,53.6,94,29.97,10.0,ESE,8.1,20.7,N/A,,Light Drizzle,110,2013-05-27 19:33:00
2:45 PM,55.4,53.6,94,29.97,4.0,SE,8.1,-,N/A,,Overcast,130,2013-05-27 19:45:00
2:48 PM,55.4,53.6,94,29.97,4.0,SE,8.1,-,N/A,Rain,Light Rain,130,2013-05-27 19:48:00
2:58 PM,55.0,54.0,96,29.99,9.0,SE,6.9,-,0.02,Rain,Light Rain,140,2013-05-27 19:58:00
3:03 PM,55.4,53.6,94,29.97,10.0,ESE,6.9,-,N/A,Rain,Light Rain,120,2013-05-27 20:03:00
3:33 PM,55.4,53.6,94,29.96,5.0,East,12.7,-,N/A,Rain,Light Rain,90,2013-05-27 20:33:00
3:43 PM,55.4,53.6,94,29.95,1.8,East,10.4,-,N/A,Rain,Rain,80,2013-05-27 20:43:00
3:52 PM,55.4,53.6,94,29.94,2.5,East,13.8,-,N/A,Rain,Light Rain,80,2013-05-27 20:52:00
3:58 PM,55.4,53.6,94,29.96,3.0,East,13.8,-,0.17,Rain,Light Rain,80,2013-05-27 20:58:00
4:23 PM,55.4,55.4,100,29.93,4.0,East,10.4,-,N/A,Rain,Light Rain,80,2013-05-27 21:23:00
4:24 PM,55.4,55.4,100,29.93,4.0,East,11.5,-,N/A,,Overcast,90,2013-05-27 21:24:00
4:29 PM,55.4,55.4,100,29.93,5.0,East,12.7,-,N/A,,Overcast,80,2013-05-27 21:29:00
4:33 PM,55.4,55.4,100,29.93,6.0,East,11.5,-,N/A,Rain,Light Rain,90,2013-05-27 21:33:00
4:43 PM,55.4,55.4,100,29.93,10.0,East,11.5,-,N/A,Rain,Light Rain,90,2013-05-27 21:43:00
4:53 PM,53.6,53.6,100,29.93,10.0,East,15.0,-,N/A,,Overcast,80,2013-05-27 21:53:00
4:58 PM,54.5,54.1,99,29.95,10.0,East,13.8,-,0.09,,Overcast,90,2013-05-27 21:58:00
5:04 PM,53.6,53.6,100,29.93,10.0,East,17.3,-,N/A,,Light Drizzle,90,2013-05-27 22:04:00
5:19 PM,53.6,53.6,100,29.92,10.0,East,16.1,-,N/A,,Light Drizzle,90,2013-05-27 22:19:00
5:58 PM,53.4,52.9,98,29.95,10.0,East,12.7,-,0.03,Rain,Light Rain,100,2013-05-27 22:58:00
6:09 PM,53.6,51.8,94,29.92,10.0,East,15.0,-,N/A,,Overcast,90,2013-05-27 23:09:00
6:13 PM,53.6,51.8,94,29.92,10.0,East,16.1,-,N/A,,Light Drizzle,90,2013-05-27 23:13:00
6:23 PM,53.6,51.8,94,29.91,10.0,East,12.7,-,N/A,,Overcast,90,2013-05-27 23:23:00
6:30 PM,53.6,51.8,94,29.92,10.0,East,16.1,-,N/A,,Light Drizzle,90,2013-05-27 23:30:00
6:40 PM,51.8,51.8,100,29.92,10.0,East,13.8,-,N/A,,Overcast,100,2013-05-27 23:40:00
6:58 PM,52.3,51.8,98,29.94,10.0,East,12.7,-,0.01,,Overcast,100,2013-05-27 23:58:00
7:01 PM,51.8,51.8,100,29.91,10.0,East,9.2,-,N/A,,Light Drizzle,90,2013-05-28 00:01:00
7:11 PM,51.8,51.8,100,29.91,9.0,East,13.8,-,N/A,,Light Drizzle,100,2013-05-28 00:11:00
7:16 PM,51.8,51.8,100,29.91,10.0,East,13.8,-,N/A,,Overcast,90,2013-05-28 00:16:00
7:26 PM,51.8,51.8,100,29.91,10.0,East,16.1,-,N/A,Rain,Light Rain,100,2013-05-28 00:26:00
7:31 PM,51.8,51.8,100,29.91,9.0,East,13.8,-,N/A,Rain,Light Rain,100,2013-05-28 00:31:00
7:56 PM,51.8,51.8,100,29.91,8.0,East,13.8,-,N/A,Rain,Light Rain,100,2013-05-28 00:56:00
7:58 PM,51.4,51.3,99,29.93,8.0,East,15.0,-,0.04,Rain,Light Rain,100,2013-05-28 00:58:00
8:01 PM,51.8,51.8,100,29.91,8.0,East,12.7,-,N/A,,Overcast,100,2013-05-28 01:01:00
8:11 PM,51.8,51.8,100,29.91,5.0,East,11.5,-,N/A,Rain,Light Rain,100,2013-05-28 01:11:00
8:16 PM,51.8,51.8,100,29.91,4.0,East,10.4,-,N/A,Rain,Light Rain,100,2013-05-28 01:16:00
8:19 PM,51.8,51.8,100,29.91,4.0,East,12.7,-,N/A,,Overcast,90,2013-05-28 01:19:00
8:24 PM,51.8,50.0,94,29.90,7.0,East,12.7,-,N/A,,Overcast,100,2013-05-28 01:24:00
8:49 PM,51.8,50.0,94,29.90,10.0,East,12.7,-,N/A,,Overcast,90,2013-05-28 01:49:00
8:58 PM,51.8,51.8,100,29.92,10.0,East,11.5,-,0.01,,Overcast,90,2013-05-28 01:58:00
9:18 PM,51.8,51.8,100,29.90,10.0,East,11.5,-,N/A,,Overcast,100,2013-05-28 02:18:00
9:58 PM,50.9,50.9,100,29.91,10.0,ESE,9.2,-,N/A,,Overcast,120,2013-05-28 02:58:00
10:18 PM,51.8,50.0,94,29.92,10.0,ESE,10.4,-,N/A,,Overcast,110,2013-05-28 03:18:00
10:37 PM,51.8,51.8,100,29.92,10.0,ESE,9.2,-,N/A,Rain,Light Rain,110,2013-05-28 03:37:00
10:48 PM,51.8,51.8,100,29.91,10.0,ESE,9.2,-,N/A,,Overcast,110,2013-05-28 03:48:00
10:53 PM,51.8,51.8,100,29.91,10.0,East,9.2,-,N/A,,Light Drizzle,100,2013-05-28 03:53:00
10:58 PM,50.9,50.9,100,29.93,10.0,East,9.2,-,0.01,,Light Drizzle,100,2013-05-28 03:58:00
11:09 PM,50.0,50.0,100,29.90,10.0,ESE,9.2,-,N/A,,Overcast,110,2013-05-28 04:09:00
11:11 PM,50.0,50.0,100,29.90,7.0,ESE,8.1,-,N/A,Rain,Light Rain,110,2013-05-28 04:11:00
11:16 PM,50.0,50.0,100,29.89,4.0,East,8.1,-,N/A,Rain,Light Rain,100,2013-05-28 04:16:00
11:21 PM,50.0,50.0,100,29.89,4.0,East,10.4,-,N/A,Rain,Light Rain,100,2013-05-28 04:21:00
11:26 PM,50.0,50.0,100,29.89,6.0,East,10.4,-,N/A,Rain,Light Rain,100,2013-05-28 04:26:00
11:30 PM,50.0,50.0,100,29.89,8.0,East,10.4,-,N/A,,Overcast,100,2013-05-28 04:30:00
11:50 PM,50.0,50.0,100,29.90,10.0,ESE,5.8,-,N/A,,Overcast,110,2013-05-28 04:50:00
11:58 PM,50.9,50.9,100,29.91,8.0,ESE,6.9,-,0.02,,Overcast,110,2013-05-28 04:58:00